Regional Weather Roundup
Issued by NWS Newport/Morehead, NC

Current Version | Previous Version | Text Only | Print | Product List | Glossary On
Versions: 1 2 3 4 5 6 7 8 9 10 11 12 13 14 15 16 17 18 19 20 21 22 23 24 25 26 27 28 29 30 31 32 33 34 35 36 37 38 39 40 41 42 43 44 45 46
000
ASUS42 KMHX 230014
RWRMHX
WEATHER ROUNDUP FOR EASTERN NORTH CAROLINA
NATIONAL WEATHER SERVICE NEWPORT/MOREHEAD CITY NC
800 PM EDT SUN APR 22 2018

NOTE: "FAIR" INDICATES FEW OR NO CLOUDS BELOW 12,000 FEET
WITH NO SIGNIFICANT WEATHER AND/OR OBSTRUCTIONS TO VISIBILITY

NCZ015>017-031-032-045>047-102-103-230100-
NORTH COAST

CITY           SKY/WX    TMP DP  RH WIND       PRES   REMARKS
EDENTON        FAIR      57  45  64 E6        30.35S
ELIZABETH CITY FAIR      54  40  59 E10       30.36R
KITTY HAWK     FAIR      51  42  72 E6        30.35S
MANTEO         FAIR      52  44  73 E10       30.36F

$$

NCZ045>047-081-094-103-104-230100-
CENTRAL COAST

CITY           SKY/WX    TMP DP  RH WIND       PRES   REMARKS
FRISCO         FAIR      55  50  83 NE8       30.35R

$$

NCZ095-097-098-100-101-230100-
SOUTHERN COAST

CITY           SKY/WX    TMP DP  RH WIND       PRES   REMARKS
BEAUFORT       FAIR      59  51  75 E9        30.32F
CEDAR ISLAND   NOT AVBL
JACKSONVILLE   FAIR      61  42  49 E9        30.31S
PINEY ISLAND   NOT AVBL
WILMINGTON     MOCLDY    60  46  59 E8        30.31S


$$

NCZ011>013-027>030-043-044-078>080-089-090>093-098-230100-
COASTAL PLAIN

CITY           SKY/WX    TMP DP  RH WIND       PRES   REMARKS
AHOSKIE        FAIR      58  35  42 SE3       30.34R
CLINTON        FAIR      63  43  47 SE3       30.31R
ELIZABETHTOWN  FAIR      63  46  53 MISG      30.30R
GOLDSBORO      FAIR      64  36  35 SE10      30.29R
GREENVILLE     FAIR      63  37  39 SE8       30.32S
HAVELOCK       NOT AVBL
KENANSVILLE    FAIR      61  37  41 CALM      30.31R
KINSTON        FAIR      63  30  29 SE8       30.32R
NEW BERN       FAIR      57  42  57 E6        30.34S
RICHLANDS      FAIR      59  38  45 CALM      30.32S
ROCKY MOUNT    FAIR      63  39  41 VRB5      30.30R
WASHINGTON     FAIR      58  40  50 SE8       30.34S
WHITEVILLE     FAIR      64  46  52 E5        30.29R

$$

AMZ130-135-150-152-154-156-158-170-250-252-270-ANZ085-086-088-633-658-670-230100-
MARINE OBSERVATIONS

STATION/POSITION TIME  TEMP    WIND        PRES    WAVE   SWELL
                       AIR SEA DIR/SP/G            HT/PER HT/PER
                 (UTC) (F)     (DEG/KT/KT) (MB)    (FT/S) (FT/S)
CHESAPEAKE LIGHT NOT AVBL
64 E VA BEACH    2350   52 51   80/  8/ 10 1029.1    1/15   2/15
DUCK             2348   52 54   90/ 12/ 12 1027.8
2 E DUCK         0000      53                N/A     2/14
OREGON INLET     2342   52 58   50/  8/ 11 1027.9
13E OREGON INLT  2348      52                N/A     2/15   2/15
HATTERAS CG      2348   56 62   70/ 10/ 13 1027.3
DIAMOND BUOY     2350   65 74   90/ 10/ 14 1027.5    3/ 4   2/ 5
CAPE LOOKOUT     2300           50/ 15/ 17 1027.2
BEAUFORT LAB     2348   60 63   80/  7/ 11 1026.8
30 SE NEW RVR IN 2308   62 65   90/ 14/ 17 1026.3
30 SE NEW RVR IN 0000      65                N/A     4/ 5
27 SE WRIGHTSVLE 2308   63 65  100/ 16/ 23 1026.2
5 SE WRIGHTSVLE  2308   62 61   90/ 12/ 16 1025.9
225 S CAPE HAT   2350   67 72  110/ 16/ 17 1025.3    4/ 7   2/ 8
41 SE CHARLESTON 2350   69 67  100/ 14/ 16 1023.5

$$




USA.gov is the U.S. government's official web portal to all federal, state and local government web resources and services.